This demonstration page uses our WeatherBlox Daily Observations layout. Learn more.

Left ArrowRight Arrow

38.89511, -77.03637

Hourly Observations for July 21, 2015

Temp ( °F °C ) Dew Point ( °F °C ) Humidity (%) Winds ( mph kmh ) Pressure ( in mb ) Visibility ( mi km ) Precip ( " mm )
12:52 am 00:52 Mostly Cloudy 85 29.4 75 23.9 72 72 S 6 9 29.70 1006 10 16 N/A
1:52 am 01:52 Mostly Cloudy 85 29.4 75 23.9 72 72 SSW 3 6 29.70 1006 10 16 N/A
2:52 am 02:52 Mostly Cloudy 86 30 75 23.9 70 70 N N/A 29.69 1006 10 16 N/A
3:52 am 03:52 Cloudy 85 29.4 73 22.8 68 68 N N/A 29.69 1005 10 16 N/A
4:52 am 04:52 Mostly Cloudy 84 28.9 74 23.3 72 72 N 3 6 29.69 1005 10 16 N/A
5:52 am 05:52 Mostly Cloudy 84 28.9 72 22.2 67 67 N 3 6 29.69 1006 10 16 N/A
6:52 am 06:52 Mostly Cloudy 84 28.9 73 22.8 70 70 N 5 7 29.70 1006 10 16 N/A
7:52 am 07:52 Cloudy 87 30.6 73 22.8 63 63 NNE 3 6 29.68 1005 10 16 N/A
8:52 am 08:52 Cloudy 87 30.6 71 21.7 59 59 NNW 5 7 29.68 1005 10 16 N/A
9:52 am 09:52 Cloudy 88 31.1 72 22.2 59 59 N 7 11 29.68 1005 10 16 N/A
10:52 am 10:52 Cloudy 88 31.1 71 21.7 57 57 NW 3 6 29.69 1005 10 16 N/A
11:52 am 11:52 Cloudy 87 30.6 71 21.7 59 59 NNW 10 17 29.68 1005 10 16 N/A
12:52 pm 12:52 Cloudy 88 31.1 72 22.2 59 59 N 5 7 29.68 1005 10 16 N/A
1:52 pm 13:52 Cloudy 90 32.2 72 22.2 56 56 W 6 9 29.67 1005 10 16 N/A
2:52 pm 14:52 Mostly Cloudy 89 31.7 72 22.2 57 57 WNW 8 13 29.65 1004 10 16 N/A
3:52 pm 15:52 Mostly Cloudy 90 32.2 72 22.2 56 56 WNW 9 15 29.64 1004 10 16 N/A
4:52 pm 16:52 Mostly Cloudy 91 32.8 72 22.2 54 54 W 9 15 29.64 1004 10 16 N/A
5:52 pm 17:52 Mostly Cloudy 91 32.8 73 22.8 56 56 W 9 15 29.63 1003 10 16 N/A
6:52 pm 18:52 Mostly Cloudy 90 32.2 69 20.6 50 50 W 9 15 29.64 1004 10 16 N/A
7:52 pm 19:52 Mostly Cloudy 89 31.7 70 21.1 53 53 W 9 15 29.66 1004 10 16 N/A
8:52 pm 20:52 Partly Cloudy 87 30.6 70 21.1 57 57 W 6 9 29.67 1005 10 16 N/A
9:52 pm 21:52 Mostly Cloudy 84 28.9 67 19.4 57 57 NW 17 28 29.71 1006 10 16 N/A
9:54 pm 21:54 Mostly Cloudy with Light Rain 82 28 66 19 58 58 NNW 15 24 29.71 1006 10 16 N/A
10:21 pm 22:21 Cloudy 82 28 66 19 58 58 WNW 6 9 29.71 1006 10 16 N/A
10:52 pm 22:52 Partly Cloudy 81 27.2 66 18.9 61 61 NNW 12 19 29.72 1007 10 16 N/A
11:52 pm 23:52 Mostly Cloudy 81 27.2 65 18.3 58 58 NNW 12 19 29.74 1007 10 16 N/A

Powered by AerisWeather